Tracking 18945 objects as of 19-Jan-2018
HD Live streaming from Space Station
objects crossing your sky now

FENGYUN 1C DEB

Track FENGYUN 1C DEB now!
10-day predictions


NORAD ID: 31620
Int'l Code: 1999-025CAA
Perigee: 828.1 km
Apogee: 870.7 km
Inclination: 99.0 °
Period: 101.8 minutes
Semi major axis: 7220 km
RCS: 0.0107 m2 (small)
Launch date: May 10, 1999
Source: People's Republic of China (PRC)
Launch site: Taiyaun Space Center, China (TSC)

Note: This is SATELLITE DEBRIS
aabbcc
Your satellite tracking list
Your tracking list is empty




NASA's NSSDC Master Catalog

Two Line Element Set (TLE):
1 31620U 99025CAA 18016.26643005 +.00000804 +00000-0 +43720-3 0  9990
2 31620 099.0395 021.9349 0029477 023.5425 336.7089 14.15022739549353
Source of the keplerian elements: AFSPC